Hourly Weather Kisujszallas

Today, 27 July, Tuesday

Time Temperature Precipitation Wind Pressure Humidity
00:00 +27°C° 0 mm 3 mps 753 mmHg 52%
01:00 +26°C° 0 mm 3 mps 753 mmHg 53%
02:00 +26°C° 0.1 mm 3 mps 753 mmHg 57%
03:00 +25°C° 0.1 mm 2 mps 753 mmHg 60%
04:00 +24°C° 0.1 mm 2 mps 753 mmHg 63%
05:00 +26°C° 0 mm 3 mps 753 mmHg 57%
06:00 +27°C° 0 mm 3 mps 753 mmHg 51%
07:00 +29°C° 0 mm 4 mps 753 mmHg 46%
08:00 +32°C° 0 mm 4 mps 753 mmHg 40%
09:00 +34°C° 0 mm 5 mps 753 mmHg 33%
10:00 +37°C° 0 mm 5 mps 753 mmHg 27%
11:00 +39°C° 0 mm 5 mps 753 mmHg 25%
12:00 +40°C° 0 mm 6 mps 753 mmHg 24%
13:00 +40°C° 0 mm 6 mps 753 mmHg 22%
14:00 +40°C° 0 mm 6 mps 752 mmHg 22%
15:00 +40°C° 0 mm 6 mps 752 mmHg 22%
16:00 +40°C° 0 mm 7 mps 752 mmHg 22%
17:00 +37°C° 0 mm 5 mps 752 mmHg 25%
18:00 +36°C° 0 mm 4 mps 752 mmHg 28%
19:00 +34°C° 0 mm 2 mps 752 mmHg 31%
20:00 +31°C° 0 mm 2 mps 752 mmHg 35%
21:00 +30°C° 0 mm 2 mps 752 mmHg 39%
22:00 +28°C° 0 mm 2 mps 752 mmHg 44%
23:00 +28°C° 0 mm 2 mps 752 mmHg 43%

Tomorrow, 28 July, Wednesday

Time Temperature Precipitation Wind Pressure Humidity
00:00 +27°C° 0 mm 2 mps 752 mmHg 42%
01:00 +27°C° 0 mm 3 mps 752 mmHg 42%
02:00 +26°C° 0 mm 2 mps 752 mmHg 44%
03:00 +26°C° 0 mm 2 mps 752 mmHg 46%
04:00 +25°C° 0 mm 2 mps 752 mmHg 48%
05:00 +27°C° 0.1 mm 2 mps 752 mmHg 47%
06:00 +28°C° 0.1 mm 2 mps 752 mmHg 46%
07:00 +29°C° 0.1 mm 2 mps 752 mmHg 44%
08:00 +31°C° 0.1 mm 2 mps 752 mmHg 39%
09:00 +35°C° 0.1 mm 2 mps 752 mmHg 33%
10:00 +37°C° 0.1 mm 3 mps 752 mmHg 27%
11:00 +38°C° 0 mm 3 mps 752 mmHg 24%
12:00 +40°C° 0 mm 4 mps 751 mmHg 21%
13:00 +42°C° 0 mm 5 mps 751 mmHg 19%
14:00 +42°C° 0 mm 5 mps 750 mmHg 18%
15:00 +42°C° 0 mm 6 mps 750 mmHg 17%
16:00 +43°C° 0 mm 7 mps 749 mmHg 17%
17:00 +40°C° 0 mm 6 mps 749 mmHg 22%
18:00 +36°C° 0 mm 5 mps 750 mmHg 26%
19:00 +34°C° 0 mm 3 mps 750 mmHg 31%
20:00 +31°C° 0 mm 3 mps 750 mmHg 37%
21:00 +30°C° 0 mm 3 mps 751 mmHg 43%
22:00 +28°C° 0 mm 3 mps 751 mmHg 49%
23:00 +27°C° 0 mm 2 mps 751 mmHg 52%

Day after tomorrow, 29 July, Thursday

Time Temperature Precipitation Wind Pressure Humidity
00:00 +27°C° 0 mm 2 mps 751 mmHg 55%
01:00 +26°C° 0 mm 2 mps 751 mmHg 58%
02:00 +25°C° 0.1 mm 2 mps 751 mmHg 64%
03:00 +24°C° 0.1 mm 2 mps 751 mmHg 69%
04:00 +23°C° 0.1 mm 2 mps 752 mmHg 75%
05:00 +24°C° 0.1 mm 2 mps 752 mmHg 71%
06:00 +25°C° 0.1 mm 2 mps 752 mmHg 67%
07:00 +27°C° 0.1 mm 2 mps 752 mmHg 63%
08:00 +29°C° 0 mm 2 mps 752 mmHg 56%
09:00 +31°C° 0 mm 2 mps 752 mmHg 49%
10:00 +33°C° 0 mm 1 mps 753 mmHg 41%
11:00 +35°C° 0 mm 2 mps 752 mmHg 37%
12:00 +36°C° 0 mm 2 mps 752 mmHg 34%
13:00 +37°C° 0 mm 2 mps 752 mmHg 30%
14:00 +37°C° 0 mm 3 mps 751 mmHg 28%
15:00 +38°C° 0 mm 3 mps 751 mmHg 26%
16:00 +38°C° 0 mm 3 mps 750 mmHg 24%
17:00 +36°C° 0 mm 3 mps 750 mmHg 27%
18:00 +35°C° 0 mm 2 mps 750 mmHg 30%
19:00 +32°C° 0 mm 2 mps 750 mmHg 33%
20:00 +30°C° 0 mm 2 mps 750 mmHg 37%
21:00 +29°C° 0 mm 2 mps 750 mmHg 40%
22:00 +28°C° 0 mm 2 mps 750 mmHg 44%
23:00 +27°C° 0 mm 2 mps 750 mmHg 46%

30 July, Friday

Time Temperature Precipitation Wind Pressure Humidity
00:00 +27°C° 0 mm 2 mps 750 mmHg 49%
01:00 +26°C° 0 mm 2 mps 750 mmHg 51%
02:00 +26°C° 0 mm 2 mps 750 mmHg 53%
03:00 +26°C° 0 mm 2 mps 750 mmHg 55%
04:00 +25°C° 0 mm 2 mps 750 mmHg 56%
05:00 +27°C° 0 mm 2 mps 750 mmHg 52%
06:00 +28°C° 0 mm 2 mps 750 mmHg 47%
07:00 +30°C° 0 mm 2 mps 750 mmHg 42%
08:00 +32°C° 0 mm 2 mps 749 mmHg 36%
09:00 +36°C° 0 mm 3 mps 749 mmHg 30%
10:00 +38°C° 0 mm 3 mps 749 mmHg 24%
11:00 +40°C° 0 mm 4 mps 748 mmHg 22%
12:00 +41°C° 0 mm 4 mps 748 mmHg 19%
13:00 +43°C° 0 mm 5 mps 747 mmHg 17%
14:00 +42°C° 0 mm 6 mps 747 mmHg 18%
15:00 +42°C° 0 mm 6 mps 747 mmHg 19%
16:00 +41°C° 0 mm 7 mps 746 mmHg 19%
17:00 +39°C° 0 mm 6 mps 746 mmHg 24%
18:00 +36°C° 0 mm 5 mps 746 mmHg 28%
19:00 +34°C° 0 mm 4 mps 746 mmHg 32%
20:00 +32°C° 0 mm 4 mps 747 mmHg 37%
21:00 +30°C° 0 mm 3 mps 747 mmHg 42%
22:00 +28°C° 0 mm 3 mps 747 mmHg 47%
23:00 +27°C° 0.2 mm 3 mps 748 mmHg 55%

31 July, Saturday

Time Temperature Precipitation Wind Pressure Humidity
00:00 +25°C° 0.2 mm 2 mps 748 mmHg 63%
01:00 +24°C° 0.2 mm 2 mps 748 mmHg 70%
02:00 +24°C° 0.1 mm 2 mps 748 mmHg 73%
03:00 +23°C° 0.1 mm 2 mps 748 mmHg 76%
04:00 +23°C° 0.1 mm 2 mps 748 mmHg 79%
05:00 +24°C° 0 mm 2 mps 749 mmHg 74%
06:00 +25°C° 0 mm 1 mps 749 mmHg 69%
07:00 +26°C° 0 mm 1 mps 749 mmHg 64%
08:00 +29°C° 0 mm 1 mps 749 mmHg 55%
09:00 +31°C° 0 mm 1 mps 749 mmHg 46%
10:00 +33°C° 0 mm 1 mps 749 mmHg 38%
11:00 +35°C° 0 mm 1 mps 748 mmHg 34%
12:00 +37°C° 0 mm 2 mps 748 mmHg 30%
13:00 +38°C° 0 mm 3 mps 747 mmHg 26%
14:00 +38°C° 0 mm 3 mps 747 mmHg 25%
15:00 +40°C° 0 mm 4 mps 747 mmHg 24%
16:00 +40°C° 0 mm 4 mps 746 mmHg 23%
17:00 +37°C° 0 mm 4 mps 747 mmHg 29%
18:00 +35°C° 0 mm 4 mps 747 mmHg 35%
19:00 +32°C° 0 mm 5 mps 747 mmHg 41%
20:00 +29°C° 0.5 mm 4 mps 747 mmHg 52%
21:00 +26°C° 0.5 mm 3 mps 748 mmHg 64%
22:00 +24°C° 0.5 mm 2 mps 749 mmHg 75%
23:00 +23°C° 0.2 mm 2 mps 748 mmHg 78%

1 August, Sunday

Time Temperature Precipitation Wind Pressure Humidity
00:00 +23°C° 0.2 mm 2 mps 748 mmHg 80%
01:00 +21°C° 0.2 mm 2 mps 748 mmHg 82%
02:00 +21°C° 0.4 mm 2 mps 748 mmHg 84%
03:00 +20°C° 0.4 mm 2 mps 749 mmHg 86%
04:00 +20°C° 0.4 mm 2 mps 749 mmHg 88%
05:00 +21°C° 0.3 mm 2 mps 749 mmHg 83%
06:00 +23°C° 0.3 mm 2 mps 749 mmHg 78%
07:00 +24°C° 0.3 mm 2 mps 749 mmHg 73%
08:00 +26°C° 0 mm 2 mps 749 mmHg 63%
09:00 +29°C° 0 mm 1 mps 749 mmHg 54%
10:00 +31°C° 0 mm 1 mps 749 mmHg 45%
11:00 +33°C° 0 mm 1 mps 748 mmHg 40%
12:00 +34°C° 0 mm 1 mps 748 mmHg 36%
13:00 +34°C° 0 mm 0 mps 747 mmHg 32%
14:00 +36°C° 0 mm 1 mps 747 mmHg 30%
15:00 +37°C° 0 mm 2 mps 746 mmHg 29%
16:00 +38°C° 0 mm 2 mps 745 mmHg 28%
17:00 +33°C° 6.2 mm 3 mps 746 mmHg 46%
18:00 +27°C° 6.2 mm 3 mps 746 mmHg 64%
19:00 +21°C° 6.2 mm 4 mps 747 mmHg 82%
20:00 +21°C° 0.4 mm 3 mps 747 mmHg 84%
21:00 +20°C° 0.4 mm 3 mps 747 mmHg 86%
22:00 +20°C° 0.4 mm 2 mps 747 mmHg 87%
23:00 +20°C° 0.7 mm 2 mps 747 mmHg 89%
Show more